Location: Alsip
(41.6689°N, 87.7387°W)
Time: 19:56:53
(UTC+00:00)

Cosmos 1048 Rocket - Visible Passes

Search period start: 25 October 2020 00:00
Search period end: 04 November 2020 00:00
Orbit: 742 x 792 km, 74.0° (Epoch: 25 October)

Date Brightness Start Highest point End Pass type
(mag) Time Alt. Az. Time Alt. Az. Time Alt. Az.
25 Oct 7.0 08:11:42 10° NE 08:11:42 10° NE 08:11:49 10° NE visible
25 Oct 5.5 09:51:59 26° N 09:51:59 26° N 09:54:32 10° N visible
26 Oct 6.1 09:15:57 19° NNE 09:15:57 19° NNE 09:17:28 10° NNE visible
26 Oct 6.1 10:56:13 11° NW 10:56:13 11° NW 10:56:43 10° NNW visible
27 Oct 6.8 08:39:50 12° NNE 08:39:50 12° NNE 08:40:12 10° NNE visible
27 Oct 6.1 10:20:06 13° NNW 10:20:06 13° NNW 10:21:04 10° NNW visible
28 Oct 6.4 09:43:55 13° N 09:43:55 13° N 09:44:31 10° N visible
